WA9NNN-10 Weather Reports


Display with metric or nautical units.
time (UTC)temp
F
wind
direction
speed
MPH
gust
MPH
rain 1hr
in
rain 24hr
in
rain mn
in
humidity
%
barometer
mb
20260903195832 95 134 2.0 2.0 0.00 0.00 0.00 49 1013.3
20260903195330 95 75 1.0 2.0 0.00 0.00 0.00 50 1013.3
20260903194831 95 0 0.0 2.0 0.00 0.00 0.00 51 1013.5
20260903194330 94 148 2.0 1.0 0.00 0.00 0.00 52 1013.5
20260903193831 93 67 3.0 2.0 0.00 0.00 0.00 53 1013.4
20260903193330 92 91 2.0 3.0 0.00 0.00 0.00 54 1013.6
20260903192831 92 46 5.0 3.0 0.00 0.00 0.00 52 1013.6
20260903192330 92 56 1.0 3.0 0.00 0.00 0.00 54 1013.6
20260903191831 92 68 3.0 2.0 0.00 0.00 0.00 53 1013.6
20260903191331 92 0 0.0 1.0 0.00 0.00 0.00 54 1013.7
20260903190831 91 0 0.0 1.0 0.00 0.00 0.00 55 1013.8
20260903190330 90 0 0.0 1.0 0.00 0.00 0.00 59 1013.9
20260903185831 88 130 1.0 2.0 0.00 0.00 0.00 60 1014.0
20260903185330 88 0 0.0 2.0 0.00 0.00 0.00 60 1014.0
20260903184831 88 359 3.0 3.0 0.00 0.00 0.00 60 1014.0
20260903184331 88 351 4.0 3.0 0.00 0.00 0.00 60 1014.1
20260903183832 87 91 3.0 3.0 0.00 0.00 0.00 62 1014.2
20260903183330 87 56 7.0 3.0 0.00 0.00 0.00 63 1014.2
20260903182832 86 349 2.0 3.0 0.00 0.00 0.00 64 1014.4
20260903182330 85 282 2.0 4.0 0.00 0.00 0.00 66 1014.4
20260903181831 84 7 3.0 4.0 0.00 0.00 0.00 66 1014.4
20260903181330 84 359 6.0 3.0 0.00 0.00 0.00 67 1014.6
20260903180831 84 314 3.0 4.0 0.00 0.00 0.00 68 1014.5
20260903180330 83 329 4.0 5.0 0.00 0.00 0.00 69 1014.7
20260903175831 83 331 4.0 5.0 0.00 0.00 0.00 69 1014.8
20260903175330 83 1 3.0 6.0 0.00 0.00 0.00 70 1014.9
20260903174831 82 329 4.0 6.0 0.00 0.00 0.00 71 1015.0
20260903174330 82 338 4.0 5.0 0.00 0.00 0.00 71 1015.0
20260903173831 82 49 5.0 5.0 0.00 0.00 0.00 72 1015.2
20260903172330 81 320 3.0 5.0 0.00 0.00 0.00 74 1015.3
20260903171331 82 318 8.0 7.0 0.00 0.00 0.00 75 1015.5
20260903170332 82 353 8.0 6.0 0.00 0.00 0.00 76 1015.3
20260903165330 83 271 3.0 7.0 0.00 0.00 0.00 76 1015.0
20260903164831 84 330 6.0 7.0 0.00 0.00 0.00 75 1014.9
20260903164330 84 285 5.0 7.0 0.00 0.00 0.00 73 1015.0
20260903163831 85 356 13.0 7.0 0.00 0.00 0.00 71 1015.1
20260903163330 85 276 6.0 7.0 0.00 0.00 0.00 70 1015.0
20260903162831 86 299 9.0 8.0 0.00 0.00 0.00 69 1015.1
20260903162331 86 347 6.0 8.0 0.00 0.00 0.00 69 1014.9
20260903161831 87 321 12.0 6.0 0.00 0.00 0.00 68 1014.6
20260903161330 87 277 6.0 6.0 0.00 0.00 0.00 67 1014.6
20260903160830 88 360 6.0 6.0 0.00 0.00 0.00 66 1014.5
20260903160331 89 338 5.0 7.0 0.00 0.00 0.00 64 1014.4
20260903155831 91 330 10.0 5.0 0.00 0.00 0.00 61 1014.1
20260903155330 93 355 18.0 2.0 0.00 0.00 0.00 58 1014.1
20260903154830 94 215 1.0 1.0 0.00 0.00 0.00 56 1013.7
20260903154330 94 297 1.0 2.0 0.00 0.00 0.00 57 1013.7
20260903153830 94 198 1.0 2.0 0.00 0.00 0.00 57 1013.5
20260903153330 94 198 5.0 2.0 0.00 0.00 0.00 57 1013.5
20260903152831 94 187 3.0 3.0 0.00 0.00 0.00 57 1013.5
20260903152330 94 209 5.0 3.0 0.00 0.00 0.00 57 1013.5
20260903151831 94 194 3.0 3.0 0.00 0.00 0.00 57 1013.4
20260903151331 94 191 4.0 3.0 0.00 0.00 0.00 56 1013.4
20260903150830 94 168 3.0 3.0 0.00 0.00 0.00 57 1013.5
20260903150331 94 214 2.0 4.0 0.00 0.00 0.00 57 1013.5
20260903145831 94 226 6.0 3.0 0.00 0.00 0.00 57 1013.5
20260903143330 91 233 1.0 2.0 0.00 0.00 0.00 63 1013.4
20260903142330 89 221 1.0 3.0 0.00 0.00 0.00 65 1013.4
20260903141831 89 231 2.0 3.0 0.00 0.00 0.00 65 1013.4
20260903141330 88 0 0.0 2.0 0.00 0.00 0.00 66 1013.4
20260903140831 88 222 3.0 2.0 0.00 0.00 0.00 67 1013.4
20260903140330 87 245 1.0 2.0 0.00 0.00 0.00 68 1013.3
20260903135831 87 237 2.0 3.0 0.00 0.00 0.00 68 1013.3
20260903135330 86 195 2.0 4.0 0.00 0.00 0.00 68 1013.2
20260903134330 86 195 2.0 4.0 0.00 0.00 0.00 70 1013.4
20260903133330 85 214 5.0 3.0 0.00 0.00 0.00 71 1013.4
20260903131330 84 217 3.0 4.0 0.00 0.00 0.00 72 1013.4
20260903125830 83 192 2.0 3.0 0.00 0.00 0.00 73 1013.5
20260903125330 83 212 4.0 3.0 0.00 0.00 0.00 73 1013.4
20260903124830 83 211 5.0 3.0 0.00 0.00 0.00 74 1013.4
20260903124332 83 205 3.0 3.0 0.00 0.00 0.00 74 1013.5
20260903123832 83 172 3.0 3.0 0.00 0.00 0.00 74 1013.6
20260903123330 82 208 5.0 3.0 0.00 0.00 0.00 75 1013.6
20260903121832 82 193 2.0 2.0 0.00 0.00 0.00 76 1013.7
20260903121331 82 187 3.0 2.0 0.00 0.00 0.00 76 1013.6
20260903120832 82 210 2.0 2.0 0.00 0.00 0.00 76 1013.6
20260903120331 81 212 2.0 2.0 0.00 0.00 0.00 76 1013.7
20260903115832 81 182 3.0 2.0 0.00 0.00 0.00 77 1013.7
20260903115331 81 221 2.0 2.0 0.00 0.00 0.00 77 1013.7
20260903114832 81 181 2.0 2.0 0.00 0.00 0.00 77 1013.6
20260903114331 81 218 3.0 2.0 0.00 0.00 0.00 77 1013.6
20260903113331 81 217 1.0 2.0 0.00 0.00 0.00 77 1013.5
20260903112831 81 229 2.0 2.0 0.00 0.00 0.00 77 1013.5
20260903112331 81 217 2.0 2.0 0.00 0.00 0.00 77 1013.5
20260903111832 81 214 2.0 2.0 0.00 0.00 0.00 77 1013.5
20260903111331 81 224 2.0 2.0 0.00 0.00 0.00 77 1013.5
20260903110331 81 198 3.0 2.0 0.00 0.00 0.00 78 1013.5
20260903105831 81 195 3.0 3.0 0.00 0.00 0.00 78 1013.5
20260903105332 81 210 3.0 3.0 0.00 0.00 0.00 78 1013.5
20260903104831 81 184 3.0 3.0 0.00 0.00 0.00 78 1013.5
20260903102331 81 208 2.0 3.0 0.00 0.00 0.00 79 1013.3
20260903101331 81 217 4.0 2.0 0.00 0.00 0.00 79 1013.4
20260903100331 81 218 1.0 1.0 0.00 0.00 0.00 79 1013.3
20260903095831 81 0 0.0 2.0 0.00 0.00 0.00 80 1013.3
20260903094332 81 221 2.0 2.0 0.00 0.00 0.00 80 1013.2
20260903093831 81 219 5.0 1.0 0.00 0.00 0.00 80 1013.3
20260903093331 82 194 1.0 1.0 0.00 0.00 0.00 80 1013.3
20260903092831 82 194 1.0 1.0 0.00 0.00 0.00 80 1013.2
20260903092331 82 210 1.0 2.0 0.00 0.00 0.00 80 1013.2
20260903091832 82 238 1.0 2.0 0.00 0.00 0.00 80 1013.3
20260903091331 82 199 1.0 2.0 0.00 0.00 0.00 80 1013.2
20260903085331 82 193 1.0 2.0 0.00 0.00 0.00 79 1013.1
20260903084832 82 212 4.0 2.0 0.00 0.00 0.00 79 1013.1
20260903084330 82 0 0.0 2.0 0.00 0.00 0.00 79 1013.1
20260903083331 82 205 1.0 2.0 0.00 0.00 0.00 79 1013.3
20260903082331 82 201 1.0 2.0 0.00 0.00 0.00 79 1013.2
20260903081331 82 221 1.0 1.0 0.00 0.00 0.00 79 1013.2
20260903080330 83 0 0.0 2.0 0.00 0.00 0.00 79 1013.1
20260903075831 83 207 1.0 2.0 0.00 0.00 0.00 79 1013.1
20260903075332 83 204 1.0 2.0 0.00 0.00 0.00 79 1013.1
20260903074331 83 229 2.0 1.0 0.00 0.00 0.00 79 1013.0
20260903072331 83 218 1.0 2.0 0.00 0.00 0.00 80 1013.1
20260903071831 83 0 0.0 1.0 0.00 0.00 0.00 80 1013.1
20260903071331 83 213 1.0 1.0 0.00 0.00 0.00 79 1013.2
20260903065831 84 222 3.0 2.0 0.00 0.00 0.00 79 1013.2
20260903064831 84 217 2.0 1.0 0.00 0.00 0.00 79 1013.2
20260903064330 84 217 1.0 1.0 0.00 0.00 0.00 78 1013.2
20260903063832 84 226 1.0 1.0 0.00 0.00 0.00 78 1013.2
20260903063331 84 196 1.0 1.0 0.00 0.00 0.00 78 1013.3
20260903062831 84 181 1.0 1.0 0.00 0.00 0.00 78 1013.3
20260903062330 84 214 2.0 2.0 0.00 0.00 0.00 78 1013.3
20260903060330 85 212 3.0 2.0 0.00 0.00 0.00 77 1013.4
20260903055331 85 216 4.0 2.0 0.00 0.00 0.00 76 1013.4
20260903054331 85 231 2.0 2.0 0.00 0.00 0.00 76 1013.4
20260903051330 85 199 1.0 2.0 0.00 0.00 0.00 75 1013.2
20260903045331 85 218 2.0 2.0 0.00 0.00 0.00 74 1013.3
20260903044832 85 217 1.0 2.0 0.00 0.00 0.00 74 1013.4
20260903044331 85 202 2.0 2.0 0.00 0.00 0.00 74 1013.4
20260903043330 86 0 0.0 1.0 0.00 0.00 0.00 74 1013.3
20260903040331 86 221 1.0 1.0 0.00 0.00 0.00 72 1013.3
20260903030331 88 182 1.0 2.0 0.00 0.00 0.00 70 1013.0
20260903025331 88 195 2.0 2.0 0.00 0.00 0.00 70 1013.1
20260903023330 88 219 2.0 2.0 0.00 0.00 0.00 69 1013.1
20260903021330 89 0 0.0 2.0 0.00 0.00 0.00 68 1012.9
20260903020330 89 195 2.0 3.0 0.00 0.00 0.00 67 1012.9
20260903015831 89 221 2.0 3.0 0.00 0.00 0.00 67 1012.8
20260903014831 89 214 2.0 2.0 0.00 0.00 0.00 67 1012.8
20260903014331 89 217 4.0 2.0 0.00 0.00 0.00 66 1012.8
20260903013831 90 212 3.0 2.0 0.00 0.00 0.00 66 1012.8
20260903013330 90 196 1.0 2.0 0.00 0.00 0.00 66 1012.7
20260903012330 90 204 3.0 2.0 0.00 0.00 0.00 65 1012.7
20260903011330 90 176 3.0 3.0 0.00 0.00 0.00 65 1012.5
20260903010831 90 228 4.0 3.0 0.00 0.00 0.00 64 1012.5
20260903010331 90 219 1.0 3.0 0.00 0.00 0.00 64 1012.4
20260903005830 91 191 3.0 3.0 0.00 0.00 0.00 64 1012.3
20260903004831 91 195 3.0 3.0 0.00 0.00 0.00 63 1012.3
20260903004330 91 219 3.0 3.0 0.00 0.00 0.00 63 1012.3
20260903003330 91 221 4.0 3.0 0.00 0.00 0.00 62 1012.1
20260903002331 91 221 5.0 4.0 0.00 0.00 0.00 61 1012.2
20260903001330 92 220 3.0 4.0 0.00 0.00 0.00 61 1012.2
20260903000831 92 206 4.0 4.0 0.00 0.00 0.00 61 1012.1
20260903000332 92 198 5.0 4.0 0.00 0.00 0.00 61 1012.2
20260902235330 92 141 2.0 5.0 0.00 0.00 0.00 60 1012.2
20260902234832 93 216 8.0 5.0 0.00 0.00 0.00 60 1012.3
20260902234330 93 235 4.0 4.0 0.00 0.00 0.00 59 1012.3
20260902233831 93 212 3.0 4.0 0.00 0.00 0.00 59 1012.2
20260902233331 94 186 5.0 4.0 0.00 0.00 0.00 59 1012.2
20260902230330 95 230 4.0 5.0 0.00 0.00 0.00 55 1012.2
20260902225831 95 212 8.0 5.0 0.00 0.00 0.00 55 1012.1
20260902224830 96 249 3.0 5.0 0.00 0.00 0.00 53 1012.1
20260902223831 97 227 7.0 4.0 0.00 0.00 0.00 52 1012.1
20260902223330 97 213 4.0 3.0 0.00 0.00 0.00 52 1012.1
20260902222831 97 271 1.0 2.0 0.00 0.00 0.00 51 1012.2
20260902222330 97 266 1.0 2.0 0.00 0.00 0.00 51 1012.2
20260902221830 97 221 3.0 3.0 0.00 0.00 0.00 50 1012.3
20260902220831 97 215 4.0 2.0 0.00 0.00 0.00 50 1012.3
20260902220330 97 237 2.0 4.0 0.00 0.00 0.00 50 1012.3
20260902215330 97 215 5.0 4.0 0.00 0.00 0.00 48 1012.3
20260902214831 97 213 4.0 3.0 0.00 0.00 0.00 49 1012.4
20260902214331 97 206 1.0 3.0 0.00 0.00 0.00 50 1012.3
20260902213830 97 224 3.0 4.0 0.00 0.00 0.00 49 1012.4
20260902213330 97 301 4.0 4.0 0.00 0.00 0.00 48 1012.4
20260902212330 97 197 5.0 5.0 0.00 0.00 0.00 47 1012.4
20260902211830 97 245 3.0 5.0 0.00 0.00 0.00 48 1012.4
20260902210331 98 231 7.0 4.0 0.00 0.00 0.00 46 1012.4
20260902205331 98 225 2.0 3.0 0.00 0.00 0.00 46 1012.7
20260902204331 98 229 3.0 3.0 0.00 0.00 0.00 45 1012.7
20260902203331 99 230 5.0 5.0 0.00 0.00 0.00 45 1012.7
20260902202331 100 186 10.0 4.0 0.00 0.00 0.00 47 1012.7
20260902201331 100 293 9.0 3.0 0.00 0.00 0.00 44 1012.8
20260902200331 100 226 4.0 3.0 0.00 0.00 0.00 45 1012.8